Location: *
(53.4003°S, 165.3236°W)
Time: 01:23:40
(UTC+00:00)

Cosmos 1892 Rocket - Pass Details

Date: 11 December 2023
Orbit: 604 x 629 km, 82.5° (Epoch: 24 February)

Event Time Altitude Azimuth Distance (km) Brightness Sun altitude
Rises 13:01:40 0° 194° (SSW) 2,937 7.8 -8.8°
Reaches altitude 10° 13:03:56 10° 197° (SSW) 2,027 6.9 -8.6°
Maximum altitude 13:08:22 60° 276° (W) 728 3.7 -8.3°
Drops below altitude 10° 13:12:46 10° 355° (N) 2,015 5.6 -7.9°
Enters shadow 13:13:28 - 357° (N) 2,296 5.9 -7.9°
